KN4RPA Weather Reports


time (UTC)temp
F
wind
direction
speed
knots
gust
knots
rain 1hr
in
rain 24hr
in
rain mn
in
humidity
%
barometer
mb
20260509114600 54 168 2.6 8.7 0.00 0.00 0.00 73 1010.6
20260509113106 54 161 0.0 4.3 0.00 0.00 0.00 73 1010.5
20260509111556 53 159 0.9 5.2 0.00 0.00 0.00 72 1010.5
20260509110054 53 159 0.0 3.5 0.00 0.00 0.00 71 1010.5
20260509104552 53 159 0.0 4.3 0.00 0.00 0.00 69 1010.5
20260509103058 53 159 0.0 6.1 0.00 0.00 0.00 69 1010.4
20260509101547 53 157 0.0 5.2 0.00 0.00 0.00 68 1010.5
20260509100051 53 157 0.0 1.7 0.00 0.00 0.00 67 1010.3
20260509094547 54 157 0.0 0.0 0.00 0.00 0.00 66 1010.2
20260509093044 54 157 0.0 0.9 0.00 0.00 0.00 65 1010.3
20260509091541 54 157 0.0 1.7 0.00 0.00 0.00 64 1010.4
20260509090049 55 157 0.0 0.9 0.00 0.00 0.00 63 1010.3
20260509084540 54 157 0.0 0.0 0.00 0.00 0.00 63 1010.3
20260509083041 54 157 0.0 0.0 0.00 0.00 0.00 63 1010.4
20260509081537 54 157 0.0 0.9 0.00 0.00 0.00 63 1010.7
20260509080038 54 157 0.0 0.0 0.00 0.00 0.00 62 1010.9
20260509074535 54 157 0.0 0.0 0.00 0.00 0.00 61 1010.9
20260509073036 55 157 0.0 0.0 0.00 0.00 0.00 60 1011.2
20260509071532 55 157 0.0 0.0 0.00 0.00 0.00 59 1011.2
20260509070031 55 157 0.0 0.9 0.00 0.00 0.00 58 1011.3
20260509064533 55 157 0.0 0.9 0.00 0.00 0.00 58 1011.2
20260509063031 55 157 0.0 5.2 0.00 0.00 0.00 58 1011.4
20260509061528 55 157 0.0 2.6 0.00 0.00 0.00 58 1011.5
20260509060031 55 157 0.0 0.9 0.00 0.00 0.00 56 1011.3
20260509054524 55 157 0.0 0.9 0.00 0.00 0.00 55 1011.2
20260509053023 55 157 0.0 2.6 0.00 0.00 0.00 54 1011.2
20260509051520 56 157 0.0 0.9 0.00 0.00 0.00 53 1011.3
20260509050039 56 157 0.0 0.9 0.00 0.00 0.00 52 1011.3
20260509044519 56 157 0.0 4.3 0.00 0.00 0.00 51 1011.2
20260509043016 57 157 0.0 4.3 0.00 0.00 0.00 51 1011.3
20260509041516 57 157 0.0 0.9 0.00 0.00 0.00 50 1011.2
20260509040015 58 157 0.0 0.0 0.00 0.00 0.00 49 1011.4
20260509034515 58 157 0.0 1.7 0.00 0.00 0.00 47 1011.6
20260509033015 59 157 0.0 2.6 0.00 0.00 0.00 46 1011.7
20260509031525 59 157 0.0 0.0 0.00 0.00 0.00 45 1011.7
20260509030014 60 157 0.0 0.0 0.00 0.00 0.00 45 1011.6
20260509024520 60 157 0.0 1.7 0.00 0.00 0.00 43 1011.7
20260509023018 60 157 0.0 0.9 0.00 0.00 0.00 43 1011.6
20260509021516 60 157 0.0 7.8 0.00 0.00 0.00 43 1011.5
20260509020013 60 160 0.0 3.5 0.00 0.00 0.00 41 1011.4
20260509014510 61 160 0.0 0.0 0.00 0.00 0.00 42 1011.4
20260509013021 62 160 0.0 0.0 0.00 0.00 0.00 41 1011.3
20260509011511 63 160 0.0 0.9 0.00 0.00 0.00 40 1011.2
20260509010014 64 160 0.0 0.9 0.00 0.00 0.00 37 1011.0
20260509004507 64 160 0.0 1.7 0.00 0.00 0.00 36 1010.9
20260509003008 65 160 0.0 2.6 0.00 0.00 0.00 35 1011.0
20260509001507 66 160 0.0 2.6 0.00 0.00 0.00 34 1010.8
20260509000013 66 160 0.0 1.7 0.00 0.00 0.00 32 1010.7
20260508234506 67 160 0.0 4.3 0.00 0.00 0.00 31 1010.6
20260508233005 68 159 0.0 1.7 0.00 0.00 0.00 30 1010.5
20260508231505 68 158 0.0 5.2 0.00 0.00 0.00 31 1010.4
20260508230005 69 156 0.0 4.3 0.00 0.00 0.00 29 1010.4
20260508224506 69 152 0.0 7.0 0.00 0.00 0.00 28 1010.3
20260508223011 69 162 0.9 5.2 0.00 0.00 0.00 29 1010.2
20260508221503 70 161 1.7 9.6 0.00 0.00 0.00 28 1010.4
20260508220008 70 166 1.7 5.2 0.00 0.00 0.00 27 1010.5
20260508214502 70 167 0.0 7.8 0.00 0.00 0.00 28 1010.4
20260508213117 70 155 0.9 7.8 0.00 0.00 0.00 28 1010.5
20260508211602 70 157 0.0 7.0 0.00 0.00 0.00 28 1010.7
20260508210059 70 160 0.0 9.6 0.00 0.00 0.00 28 1010.4
20260508204615 70 160 1.7 7.0 0.00 0.00 0.00 28 1010.7
20260508203102 71 159 0.9 5.2 0.00 0.00 0.00 28 1010.7
20260508201607 70 154 0.0 7.0 0.00 0.00 0.00 28 1010.9
20260508200106 70 148 0.0 4.3 0.00 0.00 0.00 28 1011.2
20260508194551 70 142 0.0 10.4 0.00 0.00 0.00 27 1011.4
20260508193055 70 163 1.7 5.2 0.00 0.00 0.00 28 1011.5
20260508191551 70 132 0.0 3.5 0.00 0.00 0.00 27 1011.8
20260508190052 70 86 0.0 3.5 0.00 0.00 0.00 28 1012.0
20260508184549 69 64 0.0 7.0 0.00 0.00 0.00 28 1012.2
20260508183052 70 140 1.7 13.0 0.00 0.00 0.00 27 1012.4
20260508181608 70 144 0.0 2.6 0.00 0.00 0.00 29 1012.7
20260508180103 70 144 0.0 4.3 0.00 0.00 0.00 28 1012.8
20260508174546 69 163 0.0 7.0 0.00 0.01 0.00 30 1013.0
20260508173048 68 162 0.0 5.2 0.00 0.01 0.00 30 1013.0
20260508171543 68 130 0.0 2.6 0.00 0.01 0.00 30 1013.2
20260508170041 67 35 0.0 3.5 0.00 0.01 0.00 31 1013.5
20260508164541 67 114 0.0 3.5 0.00 0.01 0.00 31 1013.7
20260508163035 66 159 0.0 8.7 0.00 0.01 0.00 34 1013.9
20260508161537 66 26 0.9 4.3 0.00 0.01 0.00 30 1014.3
20260508160038 65 157 0.0 5.2 0.00 0.01 0.00 32 1014.5
20260508154527 64 157 0.0 2.6 0.00 0.01 0.00 35 1014.5
20260508153024 64 152 0.0 2.6 0.00 0.01 0.00 35 1014.7
20260508151521 63 150 0.0 6.1 0.00 0.01 0.00 37 1014.9
20260508150020 62 138 0.0 3.5 0.00 0.01 0.00 37 1014.9
20260508144513 62 136 0.0 3.5 0.00 0.01 0.00 31 1015.1
20260508143009 60 79 0.0 0.9 0.00 0.01 0.00 38 1015.1
20260508141509 58 79 0.0 2.6 0.00 0.01 0.00 37 1015.2
20260508140001 57 80 0.0 3.5 0.00 0.01 0.00 41 1015.4
20260508134558 56 98 0.0 0.0 0.00 0.01 0.00 48 1015.3
20260508133053 54 98 0.0 3.5 0.00 0.01 0.00 56 1015.5
20260508131557 52 101 0.9 4.3 0.00 0.01 0.00 65 1015.3
20260508130045 49 159 0.0 2.6 0.00 0.01 0.00 79 1015.4
20260508124540 47 159 0.0 0.9 0.00 0.01 0.00 87 1015.5
20260508123039 46 159 0.0 0.0 0.00 0.01 0.00 89 1015.3
20260508121537 45 159 0.0 0.0 0.00 0.01 0.00 90 1015.0
20260508120039 43 159 0.0 0.0 0.00 0.01 0.00 90 1015.1